GAOFEN-5 01

Last updated on Mon Sep 21 2026 00:02:46 GMT+0000 (Coordinated Universal Time)

1 43461U 18043A 26263.41900169 .00000202 00000+0 51652-4 0 9999 2 43461 98.4697 237.0650 0002646 120.9276 239.2184 14.60659537445593
UTC large
Height (km)
Speed (km/s)
/
Latitude / Longitude
Inclination (degrees)
Orbital Period (minutes)
Azimuth
Elevation
Range (km)
Doppler Factor

Next 0 passes for location: London (51.5072 / 0.1276)

No passes found over London.
GAOFEN-5 01